Weather History for Durango, Mexico

Change the Weather History Date:

Sunday, October 9, 2011

  Actual Average Record
Temperature  
Mean Temperature 62 °F -  
Max Temperature 79 °F 76 °F 89 °F (2014)
Min Temperature 46 °F 44 °F 41 °F (2010)
Degree Days  
Heating Degree Days 2    
Growing Degree Days 12 (Base 50)    
Moisture  
Dew Point 41 °F    
Average Humidity 45    
Maximum Humidity 87    
Minimum Humidity 16    
Precipitation  
Precipitation 0.00 in - - ()
Sea Level Pressure  
Sea Level Pressure 29.93 in    
Wind  
Wind Speed 3 mph ()    
Max Wind Speed 8 mph    
Max Gust Speed -    
Visibility 12.3 miles    
Events      
Averages and records for this station are not official NWS values.
T = Trace of Precipitation, MM = Missing Value Source: Averaged Metar Reports

Daily Weather History Graph

Daily Weather History Graph

Search for Another Location

Airport:

Trip Planner

Search our weather history database for the weather conditions in past years. The results will help you decide how hot, cold, wet, or windy it might be!

Date:

Astronomy

Oct. 09, 2011 Rise Set
Actual Time 7:53 AM CDT 7:37 PM CDT
Civil Twilight 7:30 AM CDT 8:00 PM CDT
Nautical Twilight 7:03 AM CDT 8:26 PM CDT
Astronomical Twilight 6:37 AM CDT 8:52 PM CDT
Moon 6:08 PM CDT (10/9) 5:50 AM CDT (10/9)
Length of Visible Light 12h 29m
Length of Day
11h 44m
Waxing Gibbous, 95% of the Moon is Illuminated
Oct 9
Waxing Gibbous
Oct 11
Full
Oct 19
Last Quarter
Oct 26
New
Nov 2
First Quarter

Hourly Weather History & Observations

Time (CDT) Temp. Dew Point Humidity Pressure Visibility Wind Dir Wind Speed Gust Speed Precip Events Conditions
12:55 AM 63 °F 51 °F 55% 29.66 in 6 mi WSW 2.2 mph - -  
2:54 AM 57.2 °F 39.2 °F 51% 30.13 in 10.0 mi SW 8.1 mph - N/A   Clear
3:43 AM 53.6 °F 46.4 °F 77% 29.73 in 10.0 mi SSW 5.8 mph - N/A   Clear
3:55 AM 59 °F 50 °F 64% 29.70 in 6 mi Calm Calm - -  
4:42 AM 53.6 °F 46.4 °F 77% 30.12 in 10.0 mi South 6.9 mph - N/A   Clear
5:43 AM 51.8 °F 46.4 °F 82% 30.12 in 10.0 mi SSW 8.1 mph - N/A   Clear
6:47 AM 50.0 °F 46.4 °F 87% 29.75 in 10.0 mi NW 2.3 mph - N/A   Clear
6:55 AM 56 °F 49 °F 71% 29.78 in 6 mi WSW 2.2 mph - -  
7:52 AM 46.4 °F 41.0 °F 81% 30.15 in 12.0 mi NW 2.3 mph - N/A   Clear
8:43 AM 50.0 °F 41.0 °F 71% 30.16 in 14.0 mi West 4.6 mph - N/A   Clear
9:44 AM 59.0 °F 42.8 °F 55% 29.82 in 14.0 mi West 2.3 mph - N/A   Clear
9:50 AM 60 °F 48 °F 54% 29.86 in 19 mi WSW 2.2 mph - -  
10:48 AM 62.6 °F 41.0 °F 45% 30.18 in 14.0 mi NW 2.3 mph - N/A   Clear
11:44 AM 66.2 °F 35.6 °F 32% 30.17 in 14.0 mi NNE 3.5 mph - N/A   Clear
12:42 PM 69.8 °F 37.4 °F 31% 29.79 in 14.0 mi WNW 3.5 mph - N/A   Clear
12:45 PM 71 °F 42 °F 24% 29.84 in 19 mi SSE 6.7 mph - -   Scattered Clouds
1:40 PM 73.4 °F 30.2 °F 20% 30.12 in 14.0 mi Calm Calm - N/A   Clear
2:48 PM 77.0 °F 28.4 °F 17% 30.07 in 14.0 mi ENE 5.8 mph - N/A   Clear
3:42 PM 78.8 °F 33.8 °F 20% 29.65 in 14.0 mi SE 6.9 mph - N/A   Clear
3:45 PM 79 °F 41 °F 16% 29.68 in 25 mi SE 4.5 mph - -   Scattered Clouds
4:40 PM 77.0 °F 37.4 °F 24% 30.02 in 14.0 mi East 4.6 mph - N/A   Clear
5:40 PM 78.8 °F 37.4 °F 23% 30.00 in 14.0 mi Calm Calm - N/A   Clear
6:48 PM 78.8 °F 35.6 °F 21% 29.82 in 14.0 mi Calm Calm - N/A   Clear
7:47 PM 73.4 °F 33.8 °F 23% 30.01 in 14.0 mi NNW 4.6 mph - N/A   Clear
8:51 PM 66.2 °F 35.6 °F 32% 30.04 in 14.0 mi NNW 4.6 mph - N/A   Clear
9:48 PM 62.6 °F 37.4 °F 39% 30.06 in 14.0 mi NNW 4.6 mph - N/A   Clear
9:56 PM 67 °F 44 °F 33% 29.60 in 6 mi Calm Calm - -   Partly Cloudy